QPF
0.00 0.00 0.00 0.00 0.00 0.00 0.00 0.00 0.00 0.00 0.00 0.02 0.03 0.01 0.02 0.01 0.01 0.02 0.03 0.03 0.03 0.03 0.03 0.03 0.02 0.03 0.03 0.03 0.03 0.03 0.03 0.04 0.06 0.07 0.07 0.05 0.04 0.03 0.02 0.02 0.04 0.05 0.04
0.00 0.00 0.00 0.00 0.00 0.00 0.00 0.00 0.00 0.00 0.00 0.01 0.03 0.02 0.01 0.01 0.01 0.01 0.02 0.03 0.03 0.04 0.03 0.02 0.02 0.02 0.03 0.03 0.03 0.03 0.03 0.03 0.04 0.04 0.05 0.05 0.05 0.05 0.05 0.04 0.03 0.04 0.04
0.00 0.00 0.00 0.00 0.00 0.00 0.00 0.00 0.00 0.00 0.00 0.00 0.02 0.03 0.03 0.02 0.01 0.01 0.02 0.02 0.03 0.03 0.03 0.03 0.02 0.02 0.02 0.02 0.02 0.03 0.03 0.03 0.04 0.04 0.04 0.04 0.04 0.05 0.05 0.06 0.08 0.06 0.04
0.00 0.00 0.00 0.00 0.00 0.00 0.00 0.00 0.00 0.00 0.00 0.00 0.01 0.03 0.04 0.03 0.02 0.01 0.02 0.03 0.03 0.03 0.02 0.02 0.01 0.02 0.02 0.02 0.02 0.02 0.02 0.03 0.04 0.03 0.03 0.03 0.03 0.04 0.05 0.07 0.08 0.07 0.06
0.00 0.00 0.00 0.00 0.00 0.00 0.00 0.00 0.00 0.00 0.00 0.00 0.01 0.02 0.03 0.03 0.03 0.02 0.02 0.02 0.02 0.02 0.02 0.01 0.01 0.01 0.02 0.02 0.01 0.02 0.02 0.03 0.04 0.04 0.03 0.02 0.03 0.04 0.06 0.07 0.08 0.07 0.07
0.00 0.00 0.00 0.00 0.00 0.00 0.00 0.00 0.00 0.00 0.00 0.00 0.00 0.01 0.02 0.02 0.02 0.02 0.02 0.02 0.02 0.01 0.02 0.01 0.01 0.01 0.01 0.01 0.01 0.02 0.02 0.02 0.03 0.04 0.03 0.02 0.02 0.02 0.05 0.07 0.08 0.07 0.06
0.00 0.00 0.00 0.00 0.00 0.00 0.00 0.00 0.00 0.00 0.00 0.00 0.00 0.00 0.01 0.01 0.01 0.02 0.02 0.02 0.02 0.02 0.02 0.02 0.01 0.01 0.01 0.01 0.02 0.01 0.02 0.01 0.02 0.04 0.03 0.02 0.03 0.03 0.03 0.05 0.07 0.07 0.06
0.00 0.00 0.00 0.00 0.00 0.00 0.00 0.00 0.00 0.00 0.00 0.00 0.00 0.00 0.00 0.01 0.01 0.01 0.01 0.01 0.01 0.01 0.01 0.02 0.01 0.02 0.02 0.02 0.02 0.02 0.02 0.02 0.01 0.02 0.03 0.03 0.03 0.04 0.04 0.05 0.07 0.07 0.08
0.00 0.00 0.00 0.00 0.00 0.00 0.00 0.00 0.00 0.00 0.00 0.00 0.00 0.00 0.00 0.00 0.01 0.00 0.00 0.00 0.01 0.01 0.01 0.01 0.01 0.02 0.02 0.01 0.02 0.02 0.02 0.02 0.01 0.01 0.01 0.02 0.02 0.02 0.02 0.04 0.06 0.06 0.06
0.00 0.00 0.00 0.00 0.00 0.00 0.00 0.00 0.00 0.00 0.00 0.00 0.00 0.00 0.00 0.00 0.00 0.00 0.00 0.00 0.01 0.01 0.01 0.00 0.00 0.01 0.01 0.01 0.02 0.03 0.02 0.01 0.01 0.01 0.01 0.01 0.01 0.01 0.01 0.03 0.05 0.07 0.06
0.00 0.00 0.00 0.00 0.00 0.00 0.00 0.00 0.00 0.00 0.00 0.00 0.00 0.00 0.00 0.00 0.00 0.01 0.01 0.00 0.00 0.01 0.01 0.01 0.01 0.00 0.00 0.00 0.01 0.02 0.02 0.02 0.02 0.01 0.02 0.02 0.02 0.02 0.02 0.03 0.04 0.06 0.07
0.00 0.00 0.00 0.00 0.00 0.00 0.00 0.00 0.00 0.00 0.00 0.00 0.00 0.00 0.00 0.00 0.00 0.00 0.01 0.00 0.00 0.00 0.00 0.00 0.01 0.01 0.01 0.00 0.01 0.01 0.01 0.02 0.03 0.02 0.02 0.02 0.02 0.02 0.03 0.02 0.03 0.04 0.05
0.00 0.00 0.00 0.00 0.00 0.00 0.00 0.00 0.00 0.00 0.00 0.00 0.00 0.00 0.00 0.00 0.00 0.00 0.00 0.00 0.00 0.00 0.01 0.01 0.00 0.01 0.02 0.01 0.01 0.00 0.00 0.01 0.02 0.01 0.02 0.03 0.04 0.04 0.05 0.04 0.03 0.03 0.03
0.00 0.00 0.00 0.00 0.00 0.00 0.00 0.00 0.00 0.00 0.00 0.00 0.00 0.00 0.00 0.00 0.00 0.00 0.00 0.00 0.00 0.00 0.01 0.01 0.00 0.01 0.02 0.02 0.01 0.01 0.01 0.01 0.01 0.01 0.02 0.02 0.03 0.04 0.07 0.06 0.04 0.03 0.03
0.00 0.00 0.00 0.00 0.00 0.00 0.00 0.00 0.00 0.00 0.00 0.00 0.00 0.00 0.00 0.00 0.00 0.00 0.00 0.00 0.00 0.00 0.00 0.01 0.02 0.01 0.01 0.01 0.01 0.01 0.01 0.02 0.02 0.02 0.02 0.02 0.03 0.04 0.05 0.06 0.07 0.06 0.05
0.00 0.00 0.00 0.00 0.00 0.00 0.00 0.00 0.00 0.00 0.00 0.00 0.00 0.00 0.00 0.00 0.00 0.00 0.00 0.00 0.00 0.00 0.00 0.01 0.01 0.01 0.00 0.00 0.00 0.01 0.01 0.02 0.03 0.03 0.02 0.02 0.03 0.02 0.02 0.03 0.04 0.05 0.06
0.00 0.00 0.00 0.00 0.00 0.00 0.00 0.00 0.00 0.00 0.00 0.00 0.00 0.00 0.00 0.00 0.00 0.00 0.00 0.00 0.00 0.00 0.01 0.00 0.00 0.00 0.00 0.00 0.00 0.00 0.00 0.01 0.01 0.02 0.02 0.02 0.02 0.02 0.02 0.02 0.03 0.03 0.04
0.00 0.00 0.00 0.00 0.00 0.00 0.00 0.00 0.00 0.00 0.00 0.00 0.00 0.00 0.00 0.00 0.00 0.00 0.00 0.00 0.00 0.00 0.00 0.00 0.00 0.00 0.00 0.00 0.00 0.00 0.00 0.00 0.00 0.00 0.01 0.01 0.01 0.01 0.01 0.03 0.03 0.04 0.04
0.00 0.00 0.00 0.00 0.00 0.00 0.00 0.00 0.00 0.00 0.00 0.00 0.00 0.00 0.00 0.00 0.00 0.00 0.00 0.00 0.00 0.00 0.00 0.00 0.00 0.01 0.01 0.00 0.00 0.00 0.00 0.00 0.00 0.00 0.00 0.00 0.00 0.01 0.01 0.01 0.02 0.03 0.03
0.00 0.00 0.00 0.00 0.00 0.00 0.00 0.00 0.00 0.00 0.00 0.00 0.00 0.00 0.00 0.00 0.00 0.00 0.00 0.00 0.00 0.00 0.00 0.00 0.00 0.00 0.01 0.01 0.00 0.00 0.01 0.01 0.01 0.01 0.01 0.01 0.01 0.01 0.01 0.01 0.01 0.02 0.02
0.00 0.00 0.00 0.00 0.00 0.00 0.00 0.00 0.00 0.00 0.00 0.00 0.00 0.00 0.00 0.00 0.00 0.00 0.00 0.00 0.00 0.00 0.00 0.00 0.00 0.00 0.00 0.00 0.00 0.00 0.01 0.01 0.01 0.01 0.02 0.01 0.01 0.01 0.01 0.01 0.01 0.02 0.02
0.00 0.00 0.00 0.00 0.00 0.00 0.00 0.00 0.00 0.00 0.00 0.00 0.00 0.00 0.00 0.00 0.00 0.00 0.00 0.00 0.00 0.00 0.00 0.00 0.00 0.00 0.00 0.00 0.00 0.00 0.00 0.00 0.00 0.01 0.01 0.01 0.01 0.02 0.02 0.02 0.02 0.03 0.03
0.00 0.00 0.00 0.00 0.00 0.00 0.00 0.00 0.00 0.00 0.00 0.00 0.00 0.00 0.00 0.00 0.00 0.00 0.00 0.00 0.00 0.00 0.00 0.00 0.00 0.00 0.00 0.00 0.00 0.00 0.00 0.00 0.00 0.00 0.00 0.01 0.01 0.01 0.01 0.02 0.02 0.03 0.03
0.00 0.00 0.00 0.00 0.00 0.00 0.00 0.00 0.00 0.00 0.00 0.00 0.00 0.00 0.00 0.00 0.00 0.00 0.00 0.00 0.00 0.00 0.00 0.00 0.00 0.00 0.00 0.00 0.00 0.00 0.00 0.00 0.00 0.00 0.00 0.00 0.00 0.00 0.01 0.01 0.01 0.01 0.02
0.00 0.00 0.00 0.00 0.00 0.00 0.00 0.00 0.00 0.00 0.00 0.00 0.00 0.00 0.00 0.00 0.00 0.00 0.00 0.00 0.00 0.00 0.00 0.00 0.00 0.00 0.00 0.00 0.00 0.00 0.01 0.00 0.00 0.00 0.00 0.01 0.01 0.01 0.01 0.01 0.01 0.01 0.02
0.00 0.01 0.00 0.00 0.00 0.00 0.00 0.00 0.00 0.00 0.00 0.00 0.00 0.00 0.00 0.00 0.00 0.00 0.00 0.00 0.00 0.00 0.00 0.00 0.00 0.00 0.00 0.00 0.00 0.00 0.01 0.01 0.01 0.01 0.01 0.01 0.01 0.01 0.01 0.01 0.01 0.01 0.02
MSLP
1013.46 1013.77 1014.03 1014.22 1014.32 1014.32 1014.25 1014.14 1014.01 1013.91 1013.84 1013.82 1013.83 1013.85 1013.86 1013.84 1013.76 1013.63 1013.45 1013.25 1013.03 1012.84 1012.68 1012.58 1012.52 1012.50 1012.50 1012.49 1012.47 1012.40 1012.28 1012.10 1011.87 1011.59 1011.29 1010.97 1010.66 1010.38 1010.14 1009.95 1009.84 1009.79 1009.83
1013.16 1013.48 1013.76 1013.96 1014.08 1014.10 1014.06 1013.97 1013.87 1013.79 1013.75 1013.75 1013.79 1013.84 1013.88 1013.88 1013.82 1013.71 1013.53 1013.32 1013.09 1012.86 1012.67 1012.53 1012.44 1012.39 1012.38 1012.38 1012.38 1012.34 1012.26 1012.12 1011.92 1011.66 1011.36 1011.03 1010.68 1010.35 1010.05 1009.79 1009.60 1009.48 1009.44
1012.86 1013.20 1013.50 1013.72 1013.86 1013.91 1013.89 1013.83 1013.76 1013.71 1013.69 1013.70 1013.75 1013.81 1013.86 1013.87 1013.82 1013.71 1013.53 1013.31 1013.07 1012.84 1012.63 1012.47 1012.36 1012.30 1012.29 1012.29 1012.30 1012.28 1012.22 1012.09 1011.91 1011.66 1011.35 1011.01 1010.64 1010.27 1009.92 1009.61 1009.35 1009.17 1009.06
1012.54 1012.92 1013.25 1013.50 1013.67 1013.75 1013.77 1013.74 1013.69 1013.66 1013.65 1013.67 1013.72 1013.77 1013.81 1013.81 1013.75 1013.64 1013.46 1013.25 1013.01 1012.78 1012.58 1012.42 1012.31 1012.25 1012.23 1012.23 1012.23 1012.20 1012.13 1011.99 1011.80 1011.54 1011.22 1010.85 1010.47 1010.08 1009.70 1009.35 1009.06 1008.82 1008.65
1012.19 1012.61 1012.98 1013.27 1013.48 1013.60 1013.65 1013.66 1013.64 1013.63 1013.63 1013.65 1013.68 1013.71 1013.73 1013.71 1013.63 1013.51 1013.34 1013.14 1012.92 1012.72 1012.54 1012.40 1012.30 1012.24 1012.21 1012.19 1012.15 1012.08 1011.97 1011.79 1011.55 1011.26 1010.91 1010.53 1010.13 1009.73 1009.34 1008.98 1008.67 1008.40 1008.19
1011.79 1012.26 1012.67 1013.01 1013.25 1013.42 1013.51 1013.56 1013.57 1013.57 1013.58 1013.59 1013.60 1013.61 1013.59 1013.54 1013.45 1013.33 1013.17 1012.99 1012.80 1012.63 1012.49 1012.38 1012.30 1012.24 1012.19 1012.13 1012.04 1011.90 1011.71 1011.47 1011.16 1010.81 1010.43 1010.02 1009.61 1009.21 1008.83 1008.48 1008.17 1007.89 1007.66
1011.32 1011.83 1012.29 1012.67 1012.96 1013.17 1013.31 1013.39 1013.43 1013.45 1013.46 1013.46 1013.45 1013.43 1013.38 1013.30 1013.20 1013.07 1012.92 1012.77 1012.63 1012.51 1012.41 1012.33 1012.27 1012.21 1012.14 1012.03 1011.87 1011.65 1011.37 1011.03 1010.64 1010.23 1009.79 1009.36 1008.95 1008.56 1008.20 1007.87 1007.58 1007.31 1007.07
1010.81 1011.35 1011.83 1012.24 1012.57 1012.82 1012.99 1013.11 1013.19 1013.22 1013.24 1013.23 1013.20 1013.14 1013.07 1012.97 1012.85 1012.72 1012.59 1012.48 1012.39 1012.31 1012.26 1012.23 1012.19 1012.12 1012.02 1011.86 1011.62 1011.31 1010.94 1010.51 1010.04 1009.55 1009.08 1008.62 1008.21 1007.83 1007.50 1007.21 1006.95 1006.71 1006.49
1010.26 1010.81 1011.31 1011.73 1012.09 1012.37 1012.57 1012.72 1012.82 1012.88 1012.89 1012.88 1012.83 1012.75 1012.65 1012.53 1012.41 1012.28 1012.18 1012.10 1012.05 1012.02 1012.02 1012.02 1012.00 1011.94 1011.82 1011.61 1011.31 1010.93 1010.47 1009.96 1009.42 1008.88 1008.37 1007.90 1007.49 1007.14 1006.84 1006.59 1006.37 1006.17 1005.98
1009.71 1010.25 1010.74 1011.17 1011.53 1011.83 1012.06 1012.23 1012.35 1012.42 1012.45 1012.43 1012.37 1012.28 1012.16 1012.02 1011.89 1011.77 1011.68 1011.63 1011.62 1011.64 1011.68 1011.71 1011.71 1011.66 1011.52 1011.29 1010.95 1010.52 1010.01 1009.44 1008.86 1008.29 1007.76 1007.28 1006.89 1006.56 1006.30 1006.08 1005.91 1005.75 1005.59
1009.17 1009.68 1010.15 1010.57 1010.93 1011.24 1011.48 1011.68 1011.82 1011.91 1011.94 1011.93 1011.86 1011.76 1011.63 1011.48 1011.35 1011.23 1011.15 1011.12 1011.13 1011.18 1011.25 1011.31 1011.34 1011.30 1011.17 1010.93 1010.58 1010.13 1009.61 1009.03 1008.43 1007.86 1007.33 1006.86 1006.48 1006.17 1005.94 1005.76 1005.61 1005.48 1005.35
1008.62 1009.10 1009.54 1009.95 1010.31 1010.61 1010.88 1011.09 1011.26 1011.37 1011.42 1011.42 1011.37 1011.27 1011.13 1010.98 1010.84 1010.72 1010.64 1010.62 1010.64 1010.71 1010.80 1010.88 1010.92 1010.90 1010.79 1010.57 1010.25 1009.82 1009.32 1008.76 1008.19 1007.63 1007.12 1006.67 1006.31 1006.02 1005.79 1005.62 1005.49 1005.37 1005.26
1008.03 1008.49 1008.91 1009.31 1009.66 1009.98 1010.27 1010.51 1010.71 1010.85 1010.94 1010.96 1010.93 1010.85 1010.72 1010.58 1010.44 1010.32 1010.24 1010.20 1010.23 1010.29 1010.38 1010.47 1010.54 1010.54 1010.46 1010.28 1010.00 1009.62 1009.17 1008.66 1008.14 1007.62 1007.14 1006.72 1006.37 1006.08 1005.85 1005.67 1005.52 1005.40 1005.28
1007.38 1007.82 1008.24 1008.63 1009.00 1009.34 1009.66 1009.94 1010.18 1010.38 1010.51 1010.58 1010.59 1010.54 1010.44 1010.32 1010.18 1010.06 1009.98 1009.94 1009.95 1010.00 1010.09 1010.18 1010.25 1010.28 1010.23 1010.10 1009.88 1009.57 1009.19 1008.75 1008.29 1007.82 1007.38 1006.97 1006.62 1006.32 1006.07 1005.86 1005.68 1005.53 1005.38
1006.64 1007.08 1007.50 1007.91 1008.30 1008.68 1009.04 1009.38 1009.68 1009.94 1010.14 1010.28 1010.35 1010.35 1010.30 1010.20 1010.09 1009.99 1009.90 1009.85 1009.85 1009.89 1009.96 1010.05 1010.12 1010.17 1010.16 1010.08 1009.92 1009.68 1009.37 1009.01 1008.60 1008.19 1007.78 1007.38 1007.02 1006.69 1006.40 1006.14 1005.91 1005.71 1005.52
1005.81 1006.26 1006.70 1007.14 1007.57 1008.00 1008.41 1008.82 1009.19 1009.53 1009.81 1010.03 1010.18 1010.25 1010.26 1010.23 1010.16 1010.08 1010.00 1009.96 1009.95 1009.98 1010.04 1010.11 1010.19 1010.25 1010.27 1010.23 1010.13 1009.95 1009.71 1009.41 1009.06 1008.68 1008.29 1007.90 1007.52 1007.15 1006.81 1006.49 1006.20 1005.93 1005.68
1004.92 1005.39 1005.86 1006.33 1006.81 1007.29 1007.77 1008.25 1008.70 1009.12 1009.49 1009.80 1010.04 1010.20 1010.30 1010.33 1010.32 1010.28 1010.25 1010.22 1010.21 1010.24 1010.29 1010.37 1010.45 1010.52 1010.56 1010.55 1010.49 1010.37 1010.18 1009.93 1009.62 1009.27 1008.88 1008.48 1008.07 1007.66 1007.27 1006.88 1006.52 1006.19 1005.87
1004.05 1004.54 1005.04 1005.55 1006.07 1006.61 1007.15 1007.69 1008.22 1008.72 1009.18 1009.58 1009.91 1010.16 1010.34 1010.46 1010.53 1010.55 1010.56 1010.57 1010.59 1010.63 1010.69 1010.76 1010.85 1010.93 1010.99 1011.01 1010.98 1010.89 1010.74 1010.52 1010.24 1009.90 1009.52 1009.10 1008.67 1008.22 1007.77 1007.33 1006.91 1006.51 1006.13
1003.30 1003.80 1004.33 1004.87 1005.42 1006.00 1006.59 1007.18 1007.77 1008.34 1008.87 1009.34 1009.76 1010.10 1010.38 1010.58 1010.73 1010.83 1010.90 1010.96 1011.01 1011.08 1011.16 1011.25 1011.35 1011.44 1011.52 1011.56 1011.55 1011.48 1011.36 1011.16 1010.89 1010.56 1010.18 1009.75 1009.29 1008.82 1008.33 1007.85 1007.38 1006.93 1006.50
1002.73 1003.25 1003.79 1004.35 1004.93 1005.53 1006.15 1006.77 1007.40 1008.01 1008.59 1009.13 1009.61 1010.03 1010.38 1010.67 1010.89 1011.07 1011.21 1011.32 1011.43 1011.53 1011.64 1011.76 1011.88 1011.98 1012.07 1012.13 1012.14 1012.10 1011.98 1011.80 1011.55 1011.23 1010.85 1010.42 1009.95 1009.46 1008.96 1008.45 1007.95 1007.47 1007.00
1002.42 1002.94 1003.49 1004.05 1004.64 1005.26 1005.88 1006.52 1007.16 1007.79 1008.40 1008.97 1009.50 1009.97 1010.38 1010.73 1011.02 1011.26 1011.47 1011.64 1011.80 1011.95 1012.09 1012.24 1012.38 1012.50 1012.61 1012.68 1012.71 1012.68 1012.58 1012.42 1012.18 1011.87 1011.50 1011.08 1010.62 1010.13 1009.63 1009.12 1008.62 1008.12 1007.63
1002.38 1002.90 1003.44 1004.01 1004.60 1005.21 1005.83 1006.46 1007.09 1007.72 1008.32 1008.90 1009.44 1009.94 1010.39 1010.78 1011.12 1011.42 1011.68 1011.90 1012.10 1012.29 1012.47 1012.65 1012.81 1012.96 1013.08 1013.17 1013.21 1013.20 1013.12 1012.97 1012.75 1012.46 1012.12 1011.71 1011.27 1010.81 1010.32 1009.83 1009.33 1008.84 1008.35
1002.57 1003.09 1003.64 1004.21 1004.79 1005.39 1005.99 1006.60 1007.20 1007.80 1008.39 1008.95 1009.49 1009.99 1010.45 1010.86 1011.23 1011.56 1011.86 1012.12 1012.35 1012.57 1012.78 1012.97 1013.15 1013.32 1013.46 1013.56 1013.61 1013.62 1013.56 1013.43 1013.23 1012.97 1012.65 1012.28 1011.87 1011.43 1010.97 1010.50 1010.03 1009.55 1009.07
1002.91 1003.44 1004.00 1004.57 1005.15 1005.73 1006.30 1006.88 1007.45 1008.01 1008.57 1009.11 1009.62 1010.11 1010.57 1010.99 1011.37 1011.72 1012.03 1012.31 1012.56 1012.80 1013.02 1013.22 1013.41 1013.58 1013.73 1013.84 1013.91 1013.93 1013.88 1013.78 1013.60 1013.37 1013.07 1012.73 1012.35 1011.94 1011.51 1011.07 1010.63 1010.17 1009.71
1003.32 1003.87 1004.44 1005.01 1005.58 1006.14 1006.69 1007.24 1007.77 1008.30 1008.82 1009.33 1009.82 1010.29 1010.74 1011.15 1011.54 1011.89 1012.20 1012.49 1012.75 1012.98 1013.20 1013.41 1013.60 1013.77 1013.92 1014.03 1014.11 1014.13 1014.10 1014.01 1013.85 1013.63 1013.36 1013.04 1012.68 1012.29 1011.89 1011.47 1011.05 1010.61 1010.17
1003.72 1004.29 1004.87 1005.45 1006.00 1006.54 1007.07 1007.58 1008.08 1008.58 1009.06 1009.55 1010.02 1010.48 1010.92 1011.33 1011.71 1012.06 1012.38 1012.66 1012.91 1013.14 1013.35 1013.55 1013.73 1013.89 1014.03 1014.14 1014.22 1014.24 1014.22 1014.13 1013.98 1013.77 1013.51 1013.19 1012.84 1012.46 1012.06 1011.66 1011.24 1010.83 1010.40
Thickness
5707 5703 5698 5695 5690 5686 5683 5680 5677 5675 5672 5670 5668 5666 5665 5664 5663 5662 5663 5663 5663 5664 5665 5665 5666 5668 5669 5670 5671 5672 5673 5674 5672 5675 5680 5684 5686 5689 5693 5696 5699 5701 5703
5708 5704 5699 5695 5691 5687 5684 5681 5679 5676 5674 5671 5669 5667 5666 5664 5663 5663 5662 5662 5662 5663 5663 5663 5664 5665 5665 5667 5667 5669 5670 5671 5670 5670 5674 5678 5681 5684 5687 5689 5693 5696 5698
5709 5704 5700 5696 5692 5688 5685 5682 5680 5678 5675 5673 5670 5668 5667 5666 5664 5663 5663 5663 5663 5663 5663 5663 5663 5663 5662 5664 5664 5666 5667 5668 5668 5667 5669 5672 5675 5679 5681 5684 5687 5689 5692
5710 5705 5700 5697 5693 5689 5687 5683 5681 5679 5677 5674 5672 5670 5668 5667 5666 5665 5664 5664 5663 5663 5663 5662 5662 5662 5661 5662 5662 5664 5664 5664 5664 5664 5665 5668 5670 5673 5675 5677 5680 5684 5686
5710 5705 5702 5698 5694 5690 5687 5685 5681 5678 5677 5675 5673 5671 5669 5668 5666 5665 5665 5664 5663 5662 5662 5661 5660 5658 5657 5658 5660 5661 5661 5661 5661 5661 5662 5664 5666 5667 5669 5672 5674 5677 5680
5711 5706 5702 5698 5694 5690 5687 5685 5682 5678 5677 5675 5673 5672 5669 5667 5664 5661 5662 5663 5663 5662 5660 5660 5659 5658 5655 5654 5654 5655 5656 5658 5659 5659 5660 5661 5663 5665 5666 5667 5668 5670 5672
5712 5706 5702 5699 5694 5690 5688 5685 5681 5679 5677 5675 5674 5672 5670 5666 5663 5661 5660 5662 5662 5662 5660 5659 5658 5657 5655 5656 5655 5653 5653 5653 5654 5657 5659 5660 5662 5664 5663 5663 5664 5664 5667
5712 5707 5702 5698 5694 5690 5687 5684 5681 5680 5677 5674 5673 5671 5669 5666 5663 5661 5660 5662 5662 5661 5660 5659 5657 5656 5655 5654 5655 5655 5656 5656 5655 5656 5658 5659 5660 5660 5660 5660 5661 5661 5663
5711 5707 5702 5698 5693 5689 5686 5683 5682 5680 5677 5675 5673 5670 5669 5667 5663 5660 5659 5662 5662 5661 5659 5657 5656 5655 5651 5649 5651 5652 5653 5654 5652 5651 5652 5654 5653 5654 5654 5655 5656 5656 5658
5710 5706 5702 5698 5693 5689 5686 5683 5681 5679 5676 5675 5674 5672 5670 5668 5663 5660 5657 5662 5661 5660 5658 5656 5651 5650 5648 5646 5650 5650 5650 5651 5652 5652 5652 5652 5653 5653 5651 5652 5653 5652 5653
5710 5706 5701 5696 5692 5689 5685 5683 5680 5678 5675 5674 5673 5672 5670 5666 5663 5658 5656 5658 5658 5658 5657 5655 5652 5646 5644 5644 5644 5647 5646 5646 5648 5649 5650 5651 5651 5652 5652 5652 5652 5650 5650
5707 5702 5698 5694 5691 5688 5684 5680 5678 5676 5674 5673 5672 5670 5669 5667 5661 5658 5654 5653 5652 5654 5653 5652 5649 5643 5641 5641 5642 5641 5641 5641 5645 5646 5646 5646 5647 5648 5649 5649 5649 5648 5648
5702 5698 5695 5692 5688 5685 5682 5679 5676 5674 5673 5672 5670 5668 5667 5665 5662 5655 5652 5650 5648 5648 5649 5645 5642 5639 5638 5639 5637 5637 5638 5641 5641 5641 5641 5641 5642 5642 5642 5642 5643 5643 5643
5699 5696 5692 5689 5686 5682 5678 5676 5673 5671 5669 5668 5666 5664 5663 5662 5659 5655 5654 5651 5647 5645 5645 5641 5637 5635 5635 5634 5635 5636 5637 5637 5636 5636 5636 5636 5636 5636 5636 5636 5636 5636 5636
5696 5693 5689 5685 5682 5678 5674 5669 5667 5663 5661 5659 5660 5659 5656 5655 5650 5644 5644 5646 5644 5642 5639 5638 5637 5636 5634 5634 5633 5632 5631 5631 5630 5630 5630 5630 5630 5630 5629 5629 5628 5628 5628
5692 5689 5685 5680 5676 5673 5669 5662 5654 5653 5649 5647 5646 5646 5647 5642 5639 5638 5636 5634 5633 5631 5632 5632 5629 5627 5626 5624 5624 5623 5622 5621 5621 5621 5621 5621 5621 5621 5621 5621 5621 5620 5621
5687 5683 5679 5676 5672 5668 5665 5661 5655 5647 5641 5639 5638 5636 5635 5633 5631 5630 5628 5627 5625 5624 5625 5623 5620 5617 5615 5613 5612 5611 5611 5611 5610 5611 5611 5612 5612 5612 5612 5612 5612 5613 5613
5681 5675 5672 5668 5666 5663 5660 5657 5654 5650 5645 5639 5632 5627 5626 5624 5623 5622 5621 5621 5620 5617 5614 5611 5609 5606 5604 5602 5601 5601 5600 5600 5600 5600 5600 5600 5600 5601 5601 5602 5602 5602 5603
5672 5669 5665 5662 5659 5656 5653 5650 5647 5643 5639 5635 5630 5624 5618 5616 5614 5612 5612 5613 5611 5607 5604 5600 5597 5595 5593 5592 5590 5589 5589 5588 5588 5588 5588 5587 5587 5588 5589 5589 5590 5590 5590
5663 5657 5656 5654 5651 5648 5645 5641 5638 5634 5631 5627 5623 5618 5614 5611 5610 5606 5603 5600 5598 5595 5592 5589 5586 5583 5581 5580 5578 5577 5577 5576 5575 5575 5575 5574 5574 5574 5575 5576 5576 5577 5577
5653 5648 5643 5644 5642 5639 5635 5632 5628 5624 5620 5615 5611 5605 5600 5601 5599 5595 5591 5588 5585 5583 5579 5576 5574 5571 5569 5567 5565 5564 5564 5563 5561 5560 5560 5560 5560 5560 5561 5561 5562 5562 5562
5643 5640 5636 5634 5630 5627 5624 5620 5616 5612 5608 5603 5598 5593 5587 5588 5586 5583 5580 5576 5573 5570 5567 5564 5562 5559 5556 5554 5552 5551 5549 5547 5546 5544 5544 5544 5543 5544 5544 5545 5545 5545 5546
5631 5628 5625 5621 5618 5612 5611 5608 5605 5601 5597 5592 5588 5584 5580 5577 5574 5571 5567 5564 5560 5557 5554 5552 5550 5547 5544 5541 5538 5536 5535 5533 5531 5529 5529 5528 5528 5528 5527 5527 5527 5528 5529
5618 5615 5612 5608 5605 5602 5600 5597 5593 5589 5585 5581 5577 5573 5569 5565 5562 5558 5555 5551 5548 5545 5542 5539 5536 5533 5530 5527 5524 5522 5519 5516 5514 5514 5514 5513 5513 5513 5513 5512 5511 5511 5511
5603 5601 5598 5595 5592 5589 5587 5584 5580 5577 5573 5569 5565 5561 5557 5554 5550 5546 5543 5539 5535 5532 5528 5525 5522 5519 5516 5514 5511 5508 5504 5501 5499 5497 5498 5499 5499 5498 5497 5496 5496 5495 5495
5588 5586 5584 5581 5579 5576 5573 5570 5567 5564 5560 5556 5552 5548 5544 5541 5537 5534 5530 5526 5523 5520 5516 5513 5509 5506 5503 5501 5498 5494 5491 5488 5486 5484 5483 5484 5484 5483 5482 5481 5481 5480 5480